ITY1902 LICJ-LICJ

Flight info

Callsign ITY1902
Flight time 1h 10m
Altitude 23000
Route ROSAS GIANO ADUKA KAPIL
Aircraft A320/M-SDE3FGHIRWY/LB1

Departure

Time 2026-04-30 19:11
Airport Falcone–Borsellino Airport (LICJ)

Arrival

Time 2026-04-30 20:21
Airport Falcone–Borsellino Airport (LICJ)
Time Latitude Longitude Altitude Speed Heading
2026-04-30 18:38 38.18578 13.10715 66 ft 0 kts 325°
2026-04-30 18:57 38.18557 13.10734 57 ft 2 kts 325°
2026-04-30 18:57 38.18543 13.10746 62 ft 2 kts 325°
2026-04-30 18:57 38.18541 13.10748 62 ft 0 kts 325°
2026-04-30 18:58 38.18525 13.10775 58 ft 3 kts 271°
2026-04-30 18:58 38.18525 13.10785 56 ft 0 kts 256°
2026-04-30 19:01 38.18525 13.10784 65 ft 1 kts 256°
2026-04-30 19:01 38.18493 13.10670 64 ft 23 kts 248°
2026-04-30 19:02 38.18333 13.10460 59 ft 12 kts 231°
2026-04-30 19:02 38.18250 13.10376 65 ft 6 kts 171°
2026-04-30 19:03 38.18201 13.10323 60 ft 6 kts 240°
2026-04-30 19:03 38.18166 13.10224 63 ft 8 kts 246°
2026-04-30 19:04 38.18111 13.10065 59 ft 9 kts 246°
2026-04-30 19:04 38.18060 13.09917 59 ft 9 kts 246°
2026-04-30 19:05 38.17988 13.09700 58 ft 21 kts 248°
2026-04-30 19:05 38.17883 13.09385 62 ft 20 kts 248°
2026-04-30 19:06 38.17778 13.09074 64 ft 22 kts 244°
2026-04-30 19:06 38.17702 13.08920 66 ft 20 kts 222°
2026-04-30 19:06 38.17584 13.08804 65 ft 0 kts 215°
2026-04-30 19:08 38.17569 13.08791 61 ft 6 kts 212°
2026-04-30 19:08 38.17503 13.08866 61 ft 0 kts 70°
2026-04-30 19:10 38.17625 13.09225 68 ft 78 kts 67°
2026-04-30 19:10 38.18327 13.11289 403 ft 150 kts 66°
2026-04-30 19:11 38.18736 13.12514 1037 ft 151 kts 68°
2026-04-30 19:11 38.19643 13.15216 1865 ft 188 kts 68°
2026-04-30 19:11 38.20191 13.16849 2208 ft 213 kts 68°
2026-04-30 19:12 38.20823 13.18674 2642 ft 237 kts 62°
2026-04-30 19:12 38.22017 13.20178 3298 ft 253 kts 29°
2026-04-30 19:12 38.23643 13.21091 4167 ft 257 kts 24°
2026-04-30 19:13 38.26997 13.22848 5959 ft 265 kts 21°
2026-04-30 19:13 38.30485 13.24682 7541 ft 276 kts 20°
2026-04-30 19:13 38.32244 13.25613 8376 ft 279 kts 20°
2026-04-30 19:14 38.34047 13.26568 9213 ft 283 kts 20°
2026-04-30 19:14 38.35870 13.27534 10049 ft 286 kts 20°
2026-04-30 19:14 38.37752 13.28530 10488 ft 304 kts 19°
2026-04-30 19:14 38.39783 13.29603 10703 ft 328 kts 20°
2026-04-30 19:15 38.41962 13.30757 10867 ft 351 kts 20°
2026-04-30 19:15 38.45853 13.32833 11677 ft 368 kts 20°
2026-04-30 19:15 38.48997 13.34524 12581 ft 373 kts 19°
2026-04-30 19:16 38.50618 13.35398 13037 ft 375 kts 19°
2026-04-30 19:16 38.53032 13.36701 13722 ft 379 kts 19°
2026-04-30 19:16 38.57937 13.39337 14921 ft 386 kts 18°
2026-04-30 19:17 38.60425 13.40668 15506 ft 389 kts 18°
2026-04-30 19:17 38.65437 13.43352 16662 ft 397 kts 18°
2026-04-30 19:17 38.67999 13.44729 17241 ft 400 kts 18°
2026-04-30 19:18 38.72374 13.46890 18192 ft 401 kts
2026-04-30 19:18 38.76014 13.47199 18840 ft 395 kts 349°
2026-04-30 19:18 38.78660 13.46379 19322 ft 390 kts 335°
2026-04-30 19:19 38.81032 13.44746 19817 ft 387 kts 321°
2026-04-30 19:19 38.82993 13.42412 20301 ft 385 kts 308°
2026-04-30 19:19 38.85290 13.36268 21253 ft 388 kts 282°
2026-04-30 19:20 38.85517 13.32810 21711 ft 391 kts 274°
2026-04-30 19:20 38.85601 13.29311 22165 ft 393 kts 274°
2026-04-30 19:20 38.85761 13.22278 22996 ft 396 kts 274°
2026-04-30 19:21 38.85814 13.18738 23097 ft 400 kts 273°
2026-04-30 19:21 38.85914 13.11431 23108 ft 417 kts 273°
2026-04-30 19:22 38.86028 13.03956 23112 ft 419 kts 273°
2026-04-30 19:22 38.86224 12.92728 23108 ft 420 kts 273°
2026-04-30 19:23 38.86412 12.81548 23110 ft 420 kts 273°
2026-04-30 19:24 38.86521 12.74064 23101 ft 419 kts 273°
2026-04-30 19:24 38.86576 12.70332 23099 ft 419 kts 273°
2026-04-30 19:24 38.86686 12.62855 23101 ft 419 kts 273°
2026-04-30 19:25 38.86825 12.51641 23093 ft 419 kts 271°
2026-04-30 19:26 38.85751 12.44275 23090 ft 427 kts 252°
2026-04-30 19:26 38.82611 12.37728 23095 ft 437 kts 237°
2026-04-30 19:26 38.80728 12.34673 23093 ft 437 kts 237°
2026-04-30 19:27 38.76957 12.28556 23090 ft 437 kts 237°
2026-04-30 19:27 38.73188 12.22445 23081 ft 437 kts 237°
2026-04-30 19:28 38.71299 12.19389 23090 ft 438 kts 237°
2026-04-30 19:28 38.67519 12.13274 23095 ft 438 kts 236°
2026-04-30 19:29 38.63736 12.07171 23092 ft 438 kts 236°
2026-04-30 19:29 38.61820 12.04137 22945 ft 440 kts 233°
2026-04-30 19:30 38.53400 11.99671 20366 ft 466 kts 180°
2026-04-30 19:30 38.47352 12.02596 18893 ft 472 kts 149°
2026-04-30 19:31 38.41925 12.07187 17407 ft 463 kts 148°
2026-04-30 19:31 38.39391 12.09703 16701 ft 460 kts 138°
2026-04-30 19:31 38.35653 12.16184 15389 ft 452 kts 115°
2026-04-30 19:32 38.34540 12.19892 14772 ft 446 kts 104°
2026-04-30 19:32 38.33892 12.23723 14165 ft 440 kts 99°
2026-04-30 19:32 38.33305 12.27532 13534 ft 436 kts 99°
2026-04-30 19:32 38.32721 12.31281 13159 ft 425 kts 100°
2026-04-30 19:33 38.32155 12.34892 13020 ft 408 kts 99°
2026-04-30 19:33 38.31610 12.38362 12888 ft 391 kts 99°
2026-04-30 19:33 38.31085 12.41693 12759 ft 377 kts 99°
2026-04-30 19:33 38.30580 12.44905 12629 ft 363 kts 99°
2026-04-30 19:34 38.30092 12.48009 12501 ft 351 kts 99°
2026-04-30 19:34 38.29621 12.51001 12375 ft 339 kts 99°
2026-04-30 19:34 38.28722 12.56716 12052 ft 321 kts 99°
2026-04-30 19:35 38.28286 12.59483 11750 ft 318 kts 99°
2026-04-30 19:35 38.27856 12.62213 11565 ft 310 kts 99°
2026-04-30 19:35 38.27433 12.64861 11438 ft 301 kts 99°
2026-04-30 19:35 38.27024 12.67426 11316 ft 291 kts 99°
2026-04-30 19:36 38.26629 12.69916 11190 ft 282 kts 99°
2026-04-30 19:36 38.26252 12.72326 11066 ft 273 kts 99°
2026-04-30 19:36 38.25519 12.76993 10571 ft 266 kts 99°
2026-04-30 19:37 38.25281 12.79276 10285 ft 261 kts 84°
2026-04-30 19:37 38.25693 12.81459 10092 ft 252 kts 59°
2026-04-30 19:37 38.26727 12.83208 10068 ft 246 kts 36°
2026-04-30 19:37 38.28179 12.84290 10065 ft 241 kts 14°
2026-04-30 19:38 38.29811 12.84566 10071 ft 236 kts 352°
2026-04-30 19:38 38.31381 12.84032 10070 ft 234 kts 331°
2026-04-30 19:38 38.32667 12.82795 10073 ft 233 kts 311°
2026-04-30 19:38 38.33509 12.81036 10073 ft 235 kts 291°
2026-04-30 19:39 38.33786 12.78985 10077 ft 238 kts 273°
2026-04-30 19:39 38.33980 12.76910 10071 ft 235 kts 292°
2026-04-30 19:39 38.34852 12.75191 10079 ft 233 kts 318°
2026-04-30 19:39 38.36241 12.74162 10080 ft 234 kts 343°
2026-04-30 19:40 38.37864 12.74026 10082 ft 238 kts
2026-04-30 19:40 38.39385 12.74868 10083 ft 245 kts 36°
2026-04-30 19:40 38.40440 12.76587 10082 ft 253 kts 65°
2026-04-30 19:40 38.40736 12.78812 10085 ft 259 kts 89°
2026-04-30 19:41 38.40688 12.81117 10082 ft 261 kts 89°
2026-04-30 19:41 38.40636 12.83428 10084 ft 261 kts 89°
2026-04-30 19:41 38.40587 12.85743 10080 ft 261 kts 89°
2026-04-30 19:41 38.40542 12.88057 10079 ft 261 kts 89°
2026-04-30 19:42 38.40495 12.90368 10074 ft 261 kts 89°
2026-04-30 19:42 38.40447 12.92676 10079 ft 261 kts 91°
2026-04-30 19:42 38.40013 12.94921 10075 ft 264 kts 116°
2026-04-30 19:42 38.38869 12.96734 10073 ft 265 kts 143°
2026-04-30 19:43 38.37261 12.97863 10076 ft 265 kts 156°
2026-04-30 19:43 38.35589 12.98841 9912 ft 263 kts 156°
2026-04-30 19:43 38.33905 12.99722 9566 ft 260 kts 170°
2026-04-30 19:44 38.30670 12.98629 8866 ft 242 kts 229°
2026-04-30 19:44 38.29774 12.96866 8478 ft 237 kts 250°
2026-04-30 19:44 38.29129 12.94935 8103 ft 237 kts 250°
2026-04-30 19:44 38.28481 12.93005 7747 ft 237 kts 249°
2026-04-30 19:45 38.27834 12.91083 7408 ft 236 kts 249°
2026-04-30 19:45 38.27185 12.89171 7073 ft 235 kts 249°
2026-04-30 19:45 38.26541 12.87272 6758 ft 233 kts 249°
2026-04-30 19:45 38.25900 12.85381 6417 ft 233 kts 248°
2026-04-30 19:46 38.24985 12.83693 6036 ft 236 kts 218°
2026-04-30 19:46 38.23469 12.82940 5638 ft 238 kts 180°
2026-04-30 19:46 38.21892 12.83442 5270 ft 234 kts 146°
2026-04-30 19:46 38.20495 12.84465 5259 ft 236 kts 152°
2026-04-30 19:47 38.18976 12.85316 4986 ft 240 kts 155°
2026-04-30 19:47 38.17947 12.85832 4760 ft 240 kts 156°
2026-04-30 19:47 38.15860 12.86857 4285 ft 240 kts 156°
2026-04-30 19:47 38.14312 12.87630 3944 ft 239 kts 155°
2026-04-30 19:48 38.12785 12.88444 3603 ft 236 kts 147°
2026-04-30 19:48 38.11718 12.89894 3265 ft 223 kts 107°
2026-04-30 19:48 38.11689 12.91780 2934 ft 216 kts 70°
2026-04-30 19:48 38.12266 12.93531 2630 ft 215 kts 66°
2026-04-30 19:49 38.12867 12.95259 2371 ft 209 kts 66°
2026-04-30 19:49 38.14003 12.98538 1784 ft 202 kts 67°
2026-04-30 19:49 38.14567 13.00185 1494 ft 205 kts 67°
2026-04-30 19:50 38.15134 13.01849 1228 ft 205 kts 67°
2026-04-30 19:50 38.15698 13.03514 956 ft 205 kts 66°
2026-04-30 19:50 38.16258 13.05172 682 ft 203 kts 66°
2026-04-30 19:50 38.16848 13.06917 430 ft 245 kts 66°
2026-04-30 19:51 38.17587 13.09090 983 ft 267 kts 66°
2026-04-30 19:51 38.18349 13.11297 1857 ft 293 kts 66°
2026-04-30 19:51 38.19278 13.13839 1916 ft 337 kts 65°
2026-04-30 19:51 38.20345 13.16634 2323 ft 356 kts 64°
2026-04-30 19:52 38.21416 13.19415 3681 ft 350 kts 64°
2026-04-30 19:52 38.22478 13.22260 4192 ft 369 kts 65°
2026-04-30 19:52 38.23514 13.25212 5398 ft 360 kts 65°
2026-04-30 19:52 38.24511 13.28134 5721 ft 352 kts 66°
2026-04-30 19:53 38.25428 13.30897 5728 ft 327 kts 66°
2026-04-30 19:53 38.26280 13.33473 5725 ft 305 kts 66°
2026-04-30 19:53 38.27072 13.35885 5722 ft 285 kts 66°
2026-04-30 19:53 38.27810 13.38137 5723 ft 267 kts 66°
2026-04-30 19:54 38.28501 13.40247 5723 ft 249 kts 66°
2026-04-30 19:54 38.29199 13.42174 5726 ft 231 kts 55°
2026-04-30 19:54 38.30304 13.43596 5726 ft 225 kts 31°
2026-04-30 19:54 38.31753 13.44299 5733 ft 224 kts
2026-04-30 19:55 38.33299 13.44170 5729 ft 225 kts 343°
2026-04-30 19:55 38.34681 13.43222 5525 ft 233 kts 320°
2026-04-30 19:55 38.35647 13.41509 4889 ft 248 kts 292°
2026-04-30 19:55 38.35879 13.39326 4465 ft 252 kts 264°
2026-04-30 19:56 38.35618 13.37138 4184 ft 247 kts 262°
2026-04-30 19:56 38.35357 13.35011 4037 ft 238 kts 262°
2026-04-30 19:56 38.35107 13.32934 4030 ft 237 kts 262°
2026-04-30 19:56 38.34859 13.30854 4030 ft 238 kts 262°
2026-04-30 19:57 38.34612 13.28770 4029 ft 238 kts 262°
2026-04-30 19:57 38.34363 13.26682 4030 ft 238 kts 262°
2026-04-30 19:57 38.34199 13.25301 4025 ft 238 kts 262°
2026-04-30 19:57 38.33947 13.23214 4044 ft 239 kts 262°
2026-04-30 19:58 38.33695 13.21126 4041 ft 239 kts 262°
2026-04-30 19:58 38.33444 13.19037 4040 ft 238 kts 262°
2026-04-30 19:58 38.33194 13.16951 4040 ft 238 kts 262°
2026-04-30 19:58 38.32944 13.14860 4039 ft 239 kts 262°
2026-04-30 19:59 38.32690 13.12768 4040 ft 239 kts 262°
2026-04-30 19:59 38.32437 13.10679 4036 ft 239 kts 262°
2026-04-30 19:59 38.31929 13.06489 4041 ft 239 kts 262°
2026-04-30 20:00 38.31674 13.04398 4034 ft 239 kts 262°
2026-04-30 20:00 38.31419 13.02306 4034 ft 239 kts 262°
2026-04-30 20:00 38.31133 13.00218 4042 ft 240 kts 253°
2026-04-30 20:00 38.30222 12.98502 4040 ft 236 kts 212°
2026-04-30 20:01 38.27304 12.98743 4043 ft 220 kts 128°
2026-04-30 20:01 38.26733 13.00457 4039 ft 213 kts 89°
2026-04-30 20:01 38.26909 13.02321 4037 ft 213 kts 73°
2026-04-30 20:02 38.27918 13.05879 4040 ft 214 kts 70°
2026-04-30 20:02 38.28508 13.07612 4037 ft 214 kts 59°
2026-04-30 20:03 38.30827 13.09838 4036 ft 218 kts 12°
2026-04-30 20:03 38.32344 13.09781 4038 ft 223 kts 347°
2026-04-30 20:03 38.33828 13.09169 4041 ft 225 kts 344°
2026-04-30 20:03 38.35297 13.08489 4041 ft 225 kts 343°
2026-04-30 20:04 38.36762 13.07789 4038 ft 225 kts 342°
2026-04-30 20:04 38.38226 13.07088 4039 ft 224 kts 342°
2026-04-30 20:04 38.39669 13.06327 4040 ft 226 kts 332°
2026-04-30 20:05 38.41340 13.03017 4043 ft 236 kts 275°
2026-04-30 20:05 38.41067 13.00964 4042 ft 238 kts 244°
2026-04-30 20:05 38.38552 12.98545 4042 ft 232 kts 184°
2026-04-30 20:06 38.36981 12.98732 4042 ft 226 kts 159°
2026-04-30 20:06 38.35491 12.99366 4039 ft 226 kts 156°
2026-04-30 20:06 38.34007 13.00053 4038 ft 227 kts 156°
2026-04-30 20:06 38.32522 13.00752 4038 ft 227 kts 156°
2026-04-30 20:07 38.31047 13.01471 4035 ft 226 kts 152°
2026-04-30 20:07 38.29604 13.02275 4037 ft 227 kts 154°
2026-04-30 20:07 38.26707 13.03825 4036 ft 226 kts 154°
2026-04-30 20:08 38.25258 13.04602 4038 ft 225 kts 154°
2026-04-30 20:08 38.23809 13.05375 4036 ft 226 kts 154°
2026-04-30 20:08 38.22377 13.06139 4037 ft 226 kts 154°
2026-04-30 20:08 38.20925 13.06915 4040 ft 227 kts 154°
2026-04-30 20:09 38.19471 13.07695 4036 ft 226 kts 154°
2026-04-30 20:09 38.18019 13.08470 4035 ft 226 kts 154°
2026-04-30 20:09 38.15114 13.10011 4040 ft 225 kts 153°
2026-04-30 20:10 38.14167 13.13187 5217 ft 216 kts 60°
2026-04-30 20:10 38.15275 13.14427 5844 ft 220 kts 15°
2026-04-30 20:10 38.16796 13.14330 6387 ft 231 kts 340°
2026-04-30 20:11 38.19028 13.11602 5905 ft 231 kts 289°
2026-04-30 20:11 38.19451 13.09656 5766 ft 228 kts 286°
2026-04-30 20:11 38.19834 13.07688 5707 ft 230 kts 285°
2026-04-30 20:12 38.20580 13.03714 5611 ft 232 kts 285°
2026-04-30 20:12 38.20956 13.01722 5557 ft 232 kts 286°
2026-04-30 20:12 38.21334 12.99727 5511 ft 232 kts 285°
2026-04-30 20:13 38.21713 12.97731 5457 ft 232 kts 286°
2026-04-30 20:13 38.22095 12.95731 5404 ft 233 kts 287°
2026-04-30 20:13 38.22477 12.93727 5354 ft 233 kts 286°
2026-04-30 20:13 38.22857 12.91724 5299 ft 233 kts 286°
2026-04-30 20:14 38.23237 12.89721 5251 ft 234 kts 286°
2026-04-30 20:14 38.23391 12.87668 5172 ft 236 kts 261°
2026-04-30 20:14 38.22697 12.85780 5067 ft 240 kts 227°
2026-04-30 20:14 38.21311 12.84658 5026 ft 239 kts 194°
2026-04-30 20:15 38.19680 12.84635 4903 ft 234 kts 159°
2026-04-30 20:15 38.18177 12.85404 4781 ft 232 kts 154°
2026-04-30 20:15 38.16723 12.86197 4642 ft 222 kts 153°
2026-04-30 20:15 38.15302 12.86970 4326 ft 223 kts 153°
2026-04-30 20:16 38.13867 12.87753 3966 ft 226 kts 153°
2026-04-30 20:16 38.12457 12.88632 3592 ft 225 kts 138°
2026-04-30 20:16 38.11667 12.90203 3435 ft 203 kts 100°
2026-04-30 20:16 38.11784 12.91905 3109 ft 194 kts 65°
2026-04-30 20:17 38.12459 12.93371 2717 ft 188 kts 63°
2026-04-30 20:17 38.12962 12.94811 2408 ft 169 kts 68°
2026-04-30 20:17 38.13375 12.96138 2160 ft 153 kts 69°
2026-04-30 20:17 38.13748 12.97346 1971 ft 143 kts 68°
2026-04-30 20:18 38.14094 12.98491 1784 ft 136 kts 71°
2026-04-30 20:18 38.14375 12.99632 1615 ft 135 kts 73°
2026-04-30 20:18 38.14663 13.00756 1429 ft 133 kts 70°
2026-04-30 20:18 38.15011 13.01846 1252 ft 133 kts 65°
2026-04-30 20:19 38.15434 13.02888 1081 ft 133 kts 59°
2026-04-30 20:19 38.15728 13.03568 975 ft 133 kts 62°
2026-04-30 20:19 38.16211 13.05009 736 ft 132 kts 68°
2026-04-30 20:19 38.16557 13.06082 569 ft 131 kts 66°
2026-04-30 20:20 38.16925 13.07138 390 ft 130 kts 67°
2026-04-30 20:20 38.17267 13.08200 207 ft 131 kts 68°
2026-04-30 20:20 38.17635 13.09249 108 ft 129 kts 70°
2026-04-30 20:20 38.17995 13.10253 66 ft 113 kts 69°
2026-04-30 20:21 38.18217 13.11008 66 ft 75 kts 66°
2026-04-30 20:21 38.18408 13.11561 65 ft 63 kts 67°
2026-04-30 20:21 38.18531 13.11882 66 ft 13 kts 25°
2026-04-30 20:21 38.18584 13.11838 70 ft 10 kts 302°
2026-04-30 20:22 38.18607 13.11700 63 ft 19 kts 276°
2026-04-30 20:22 38.18613 13.11539 65 ft 17 kts 255°
2026-04-30 20:22 38.18563 13.11412 56 ft 16 kts 243°
2026-04-30 20:22 38.18517 13.11292 59 ft 14 kts 244°
2026-04-30 20:23 38.18478 13.11180 64 ft 13 kts 246°
2026-04-30 20:23 38.18443 13.11076 59 ft 12 kts 249°
2026-04-30 20:23 38.18433 13.10976 62 ft 11 kts 285°
2026-04-30 20:23 38.18466 13.10894 60 ft 10 kts 292°
2026-04-30 20:24 38.18488 13.10814 62 ft 9 kts 295°
2026-04-30 20:24 38.18524 13.10757 65 ft 8 kts 327°
2026-04-30 20:24 38.18568 13.10722 61 ft 7 kts 325°
2026-04-30 20:24 38.18572 13.10719 62 ft 0 kts 325°